Flag for United Kingdom

Past Weather in 53°31'16.3"N, 1°07'30.3"W, United Kingdom — Yesterday and Last 2 Weeks

Now
72 °F

Sunny.


Feels Like: 76 °F
Forecast: 71 / 52 °F
Wind: 6 mph from Southeast

Location: Scampton

Current Time: May 28, 2020 at 7:54:40 pm

Latest Report: May 28, 2020 at 6:50 pm


Visibility: N/A

Pressure: 30.45 "Hg

Humidity: 31%

Dew Point: 39 °F

Location of 53°31'16.3"N, 1°07'30.3"WLocation

Past Weather in 53°31'16.3"N, 1°07'30.3"W — Graph

°F

53°31'16.3"N, 1°07'30.3"W Temperature Yesterday

Maximum temperature yesterday: 70 °F (at 2:50 pm)
Minimum temperature yesterday: 48 °F (at 4:50 am)
Average temperature yesterday: 59 °F

High & Low Weather Summary for the Past Weeks

 TemperatureHumidityPressure
High79 °F (May 20, 1:50 pm)100% (May 20, 5:50 am)30.63 "Hg (May 20, 5:50 am)
Low32 °F (May 14, 12:50 am)22% (May 25, 4:50 pm)29.77 "Hg (May 22, 4:50 am)
Average58 °F62%30.23 "Hg
* Reported May 13 5:50 pm — May 28 5:50 pm, 53°31'16.3"N, 1°07'30.3"W. Weather by CustomWeather, © 2020

Note: Actual official high and low records may vary slightly from our data, if they occured in-between our weather recording intervals... More about our weather records

53°31'16.3"N, 1°07'30.3"W Weather History for the Previous 24 Hours

Scroll right to see more
 ConditionsComfort  
Time TempWeatherWind HumidityBarometerVisibility
5:50 pm
Thu, May 28
72 °FSunny.8 mph31%30.45 "HgN/A
4:50 pm72 °FSunny.6 mph29%30.45 "HgN/A
3:50 pm72 °FSunny.6 mph31%30.48 "HgN/A
2:50 pm72 °FSunny.6 mph31%30.51 "HgN/A
1:50 pm70 °FSunny.6 mph35%30.51 "HgN/A
12:50 pm68 °FSunny.8 mph38%30.54 "HgN/A
11:50 am66 °FSunny.6 mph43%30.54 "Hg10 mi
10:50 am63 °FSunny.7 mph49%30.57 "Hg10 mi
9:50 am59 °FSunny.6 mph63%30.57 "Hg10 mi
8:50 am57 °FPassing clouds.7 mph72%30.60 "HgN/A
7:50 am54 °FScattered clouds.7 mph88%30.60 "HgN/A
6:50 am50 °FPartly sunny.6 mph94%30.60 "HgN/A
5:50 am48 °FLow clouds.3 mph100%30.63 "HgN/A
4:50 am48 °FPartly sunny.6 mph94%30.60 "Hg6 mi
3:50 am48 °FPassing clouds.5 mph94%30.60 "HgN/A
2:50 am46 °FPassing clouds.5 mph93%30.63 "HgN/A
1:50 am48 °FClear.7 mph94%30.60 "HgN/A
12:50 am48 °FClear.6 mph94%30.63 "Hg5 mi
11:50 pm
Wed, May 27
50 °FClear.6 mph94%30.63 "HgN/A
10:50 pm50 °FClear.7 mph94%30.63 "HgN/A
9:50 pm52 °FClear.7 mph88%30.63 "HgN/A
8:50 pm55 °FSunny.10 mph82%30.63 "HgN/A
7:50 pm59 °FPassing clouds.13 mph72%30.60 "HgN/A
Weather by CustomWeather, © 2020

See weather overview

Advertising